Year,Month,Day,Hour,Minute,Value (Times are PST for temperature in C)
2016,05,20,00,00,9.80
2016,05,20,00,01,9.80
2016,05,20,00,02,9.80
2016,05,20,00,03,9.80
2016,05,20,00,04,9.80
2016,05,20,00,05,9.80
2016,05,20,00,06,9.80
2016,05,20,00,07,9.80
2016,05,20,00,08,9.80
2016,05,20,00,09,9.80
2016,05,20,00,10,9.80
2016,05,20,00,11,9.80
2016,05,20,00,12,9.80
2016,05,20,00,13,9.80
2016,05,20,00,14,9.80
2016,05,20,00,15,9.80
2016,05,20,00,16,9.80
2016,05,20,00,17,9.80
2016,05,20,00,18,9.80
2016,05,20,00,19,9.80
2016,05,20,00,20,9.80
2016,05,20,00,21,9.80
2016,05,20,00,22,9.80
2016,05,20,00,23,9.80
2016,05,20,00,24,9.80
2016,05,20,00,25,9.80
2016,05,20,00,26,9.80
2016,05,20,00,27,9.80
2016,05,20,00,28,9.80
2016,05,20,00,29,9.80
2016,05,20,00,30,9.80
2016,05,20,00,31,9.80
2016,05,20,00,32,9.90
2016,05,20,00,33,9.90
2016,05,20,00,34,9.90
2016,05,20,00,35,9.90
2016,05,20,00,36,9.90
2016,05,20,00,37,9.90
2016,05,20,00,38,9.90
2016,05,20,00,39,9.90
2016,05,20,00,40,9.80
2016,05,20,00,41,9.80
2016,05,20,00,42,9.80
2016,05,20,00,43,9.80
2016,05,20,00,44,9.80
2016,05,20,00,45,9.70
2016,05,20,00,46,9.70
2016,05,20,00,47,9.70
2016,05,20,00,48,9.60
2016,05,20,00,49,9.60
2016,05,20,00,50,9.60
2016,05,20,00,51,9.60
2016,05,20,00,52,9.50
2016,05,20,00,53,9.50
2016,05,20,00,54,9.50
2016,05,20,00,55,9.40
2016,05,20,00,56,9.40
2016,05,20,00,57,9.40
2016,05,20,00,58,9.40
2016,05,20,00,59,9.40
2016,05,20,01,00,9.40
2016,05,20,01,01,9.30
2016,05,20,01,02,9.30
2016,05,20,01,03,9.30
2016,05,20,01,04,9.30
2016,05,20,01,05,9.30
2016,05,20,01,06,9.30
2016,05,20,01,07,9.30
2016,05,20,01,08,9.30
2016,05,20,01,09,9.20
2016,05,20,01,10,9.20
2016,05,20,01,11,9.20
2016,05,20,01,12,9.20
2016,05,20,01,13,9.20
2016,05,20,01,14,9.20
2016,05,20,01,15,9.20
2016,05,20,01,16,9.20
2016,05,20,01,17,9.10
2016,05,20,01,18,9.10
2016,05,20,01,19,9.10
2016,05,20,01,20,9.10
2016,05,20,01,21,9.10
2016,05,20,01,22,9.10
2016,05,20,01,23,9.10
2016,05,20,01,24,9.00
2016,05,20,01,25,9.00
2016,05,20,01,26,9.00
2016,05,20,01,27,9.00
2016,05,20,01,28,9.00
2016,05,20,01,29,8.90
2016,05,20,01,30,8.90
2016,05,20,01,31,8.90
2016,05,20,01,32,8.90
2016,05,20,01,33,8.80
2016,05,20,01,34,8.80
2016,05,20,01,35,8.80
2016,05,20,01,36,8.80
2016,05,20,01,37,8.80
2016,05,20,01,38,8.70
2016,05,20,01,39,8.70
2016,05,20,01,40,8.70
2016,05,20,01,41,8.70
2016,05,20,01,42,8.70
2016,05,20,01,43,8.70
2016,05,20,01,44,8.70
2016,05,20,01,45,8.70
2016,05,20,01,46,8.70
2016,05,20,01,47,8.70
2016,05,20,01,48,8.70
2016,05,20,01,49,8.70
2016,05,20,01,50,8.70
2016,05,20,01,51,8.70
2016,05,20,01,52,8.70
2016,05,20,01,53,8.70
2016,05,20,01,54,8.60
2016,05,20,01,55,8.70
2016,05,20,01,56,8.60
2016,05,20,01,57,8.60
2016,05,20,01,58,8.60
2016,05,20,01,59,8.60
2016,05,20,02,00,8.60
2016,05,20,02,01,8.60
2016,05,20,02,02,8.60
2016,05,20,02,03,8.60
2016,05,20,02,04,8.50
2016,05,20,02,05,8.50
2016,05,20,02,06,8.50
2016,05,20,02,07,8.40
2016,05,20,02,08,8.40
2016,05,20,02,09,8.40
2016,05,20,02,10,8.40
2016,05,20,02,11,8.40
2016,05,20,02,12,8.40
2016,05,20,02,13,8.40
2016,05,20,02,14,8.40
2016,05,20,02,15,8.40
2016,05,20,02,16,8.50
2016,05,20,02,17,8.50
2016,05,20,02,18,8.50
2016,05,20,02,19,8.50
2016,05,20,02,20,8.50
2016,05,20,02,21,8.40
2016,05,20,02,22,8.40
2016,05,20,02,23,8.40
2016,05,20,02,24,8.40
2016,05,20,02,25,8.40
2016,05,20,02,26,8.40
2016,05,20,02,27,8.40
2016,05,20,02,28,8.40
2016,05,20,02,29,8.40
2016,05,20,02,30,8.40
2016,05,20,02,31,8.40
2016,05,20,02,32,8.50
2016,05,20,02,33,8.50
2016,05,20,02,34,8.50
2016,05,20,02,35,8.50
2016,05,20,02,36,8.50
2016,05,20,02,37,8.50
2016,05,20,02,38,8.60
2016,05,20,02,39,8.50
2016,05,20,02,40,8.50
2016,05,20,02,41,8.50
2016,05,20,02,42,8.50
2016,05,20,02,43,8.50
2016,05,20,02,44,8.50
2016,05,20,02,45,8.50
2016,05,20,02,46,8.50
2016,05,20,02,47,8.50
2016,05,20,02,48,8.50
2016,05,20,02,49,8.50
2016,05,20,02,50,8.60
2016,05,20,02,51,8.60
2016,05,20,02,52,8.60
2016,05,20,02,53,8.60
2016,05,20,02,54,8.60
2016,05,20,02,55,8.70
2016,05,20,02,56,8.70
2016,05,20,02,57,8.70
2016,05,20,02,58,8.70
2016,05,20,02,59,8.70
2016,05,20,03,00,8.70
2016,05,20,03,01,8.70
2016,05,20,03,02,8.70
2016,05,20,03,03,8.70
2016,05,20,03,04,8.70
2016,05,20,03,05,8.70
2016,05,20,03,06,8.70
2016,05,20,03,07,8.70
2016,05,20,03,08,8.70
2016,05,20,03,09,8.70
2016,05,20,03,10,8.70
2016,05,20,03,11,8.70
2016,05,20,03,12,8.70
2016,05,20,03,13,8.70
2016,05,20,03,14,8.70
2016,05,20,03,15,8.60
2016,05,20,03,16,8.70
2016,05,20,03,17,8.70
2016,05,20,03,18,8.60
2016,05,20,03,19,8.60
2016,05,20,03,20,8.60
2016,05,20,03,21,8.70
2016,05,20,03,22,8.70
2016,05,20,03,23,8.70
2016,05,20,03,24,8.70
2016,05,20,03,25,8.70
2016,05,20,03,26,8.70
2016,05,20,03,27,8.70
2016,05,20,03,28,8.70
2016,05,20,03,29,8.70
2016,05,20,03,30,8.70
2016,05,20,03,31,8.70
2016,05,20,03,32,8.70
2016,05,20,03,33,8.70
2016,05,20,03,34,8.70
2016,05,20,03,35,8.70
2016,05,20,03,36,8.70
2016,05,20,03,37,8.70
2016,05,20,03,38,8.60
2016,05,20,03,39,8.60
2016,05,20,03,40,8.60
2016,05,20,03,41,8.60
2016,05,20,03,42,8.60
2016,05,20,03,43,8.60
2016,05,20,03,44,8.60
2016,05,20,03,45,8.60
2016,05,20,03,46,8.60
2016,05,20,03,47,8.50
2016,05,20,03,48,8.50
2016,05,20,03,49,8.50
2016,05,20,03,50,8.50
2016,05,20,03,51,8.40
2016,05,20,03,52,8.40
2016,05,20,03,53,8.40
2016,05,20,03,54,8.40
2016,05,20,03,55,8.40
2016,05,20,03,56,8.30
2016,05,20,03,57,8.30
2016,05,20,03,58,8.30
2016,05,20,03,59,8.30
2016,05,20,04,00,8.30
2016,05,20,04,01,8.30
2016,05,20,04,02,8.30
2016,05,20,04,03,8.30
2016,05,20,04,04,8.30
2016,05,20,04,05,8.30
2016,05,20,04,06,8.30
2016,05,20,04,07,8.30
2016,05,20,04,08,8.30
2016,05,20,04,09,8.30
2016,05,20,04,10,8.40
2016,05,20,04,11,8.40
2016,05,20,04,12,8.40
2016,05,20,04,13,8.40
2016,05,20,04,14,8.50
2016,05,20,04,15,8.50
2016,05,20,04,16,8.50
2016,05,20,04,17,8.50
2016,05,20,04,18,8.50
2016,05,20,04,19,8.50
2016,05,20,04,20,8.50
2016,05,20,04,21,8.50
2016,05,20,04,22,8.40
2016,05,20,04,23,8.40
2016,05,20,04,24,8.40
2016,05,20,04,25,8.40
2016,05,20,04,26,8.40
2016,05,20,04,27,8.40
2016,05,20,04,28,8.40
2016,05,20,04,29,8.40
2016,05,20,04,30,8.40
2016,05,20,04,31,8.40
2016,05,20,04,32,8.40
2016,05,20,04,33,8.40
2016,05,20,04,34,8.40
2016,05,20,04,35,8.40
2016,05,20,04,36,8.40
2016,05,20,04,37,8.40
2016,05,20,04,38,8.40
2016,05,20,04,39,8.40
2016,05,20,04,40,8.40
2016,05,20,04,41,8.40
2016,05,20,04,42,8.50
2016,05,20,04,43,8.50
2016,05,20,04,44,8.50
2016,05,20,04,45,8.50
2016,05,20,04,46,8.50
2016,05,20,04,47,8.60
2016,05,20,04,48,8.60
2016,05,20,04,49,8.60
2016,05,20,04,50,8.60
2016,05,20,04,51,8.70
2016,05,20,04,52,8.70
2016,05,20,04,53,8.70
2016,05,20,04,54,8.80
2016,05,20,04,55,8.80
2016,05,20,04,56,8.90
2016,05,20,04,57,8.90
2016,05,20,04,58,8.90
2016,05,20,04,59,8.90
2016,05,20,05,00,8.90
2016,05,20,05,01,8.90
2016,05,20,05,02,8.90
2016,05,20,05,03,8.90
2016,05,20,05,04,8.80
2016,05,20,05,05,8.80
2016,05,20,05,06,8.80
2016,05,20,05,07,8.80
2016,05,20,05,08,8.80
2016,05,20,05,09,8.80
2016,05,20,05,10,8.80
2016,05,20,05,11,8.80
2016,05,20,05,12,8.80
2016,05,20,05,13,8.80
2016,05,20,05,14,8.80
2016,05,20,05,15,8.80
2016,05,20,05,16,8.70
2016,05,20,05,17,8.70
2016,05,20,05,18,8.70
2016,05,20,05,19,8.70
2016,05,20,05,20,8.70
2016,05,20,05,21,8.70
2016,05,20,05,22,8.70
2016,05,20,05,23,8.70
2016,05,20,05,24,8.70
2016,05,20,05,25,8.70
2016,05,20,05,26,8.70
2016,05,20,05,27,8.70
2016,05,20,05,28,8.70
2016,05,20,05,29,8.70
2016,05,20,05,30,8.70
2016,05,20,05,31,8.70
2016,05,20,05,32,8.70
2016,05,20,05,33,8.70
2016,05,20,05,34,8.70
2016,05,20,05,35,8.70
2016,05,20,05,36,8.80
2016,05,20,05,37,8.80
2016,05,20,05,38,8.80
2016,05,20,05,39,8.80
2016,05,20,05,40,8.80
2016,05,20,05,41,8.80
2016,05,20,05,42,8.80
2016,05,20,05,43,8.80
2016,05,20,05,44,8.80
2016,05,20,05,45,8.80
2016,05,20,05,46,8.80
2016,05,20,05,47,8.80
2016,05,20,05,48,8.80
2016,05,20,05,49,8.80
2016,05,20,05,50,8.80
2016,05,20,05,51,8.80
2016,05,20,05,52,8.80
2016,05,20,05,53,8.80
2016,05,20,05,54,8.80
2016,05,20,05,55,8.80
2016,05,20,05,56,8.80
2016,05,20,05,57,8.90
2016,05,20,05,58,8.90
2016,05,20,05,59,8.90
2016,05,20,06,00,8.90
2016,05,20,06,01,8.90
2016,05,20,06,02,9.00
2016,05,20,06,03,9.00
2016,05,20,06,04,9.00
2016,05,20,06,05,9.00
2016,05,20,06,06,9.00
2016,05,20,06,07,9.00
2016,05,20,06,08,9.00
2016,05,20,06,09,8.90
2016,05,20,06,10,8.90
2016,05,20,06,11,8.90
2016,05,20,06,12,8.90
2016,05,20,06,13,8.90
2016,05,20,06,14,8.90
2016,05,20,06,15,8.90
2016,05,20,06,16,8.90
2016,05,20,06,17,8.80
2016,05,20,06,18,8.90
2016,05,20,06,19,8.90
2016,05,20,06,20,8.90
2016,05,20,06,21,8.90
2016,05,20,06,22,8.90
2016,05,20,06,23,8.90
2016,05,20,06,24,9.00
2016,05,20,06,25,9.00
2016,05,20,06,26,9.00
2016,05,20,06,27,9.10
2016,05,20,06,28,9.10
2016,05,20,06,29,9.10
2016,05,20,06,30,9.20
2016,05,20,06,31,9.20
2016,05,20,06,32,9.20
2016,05,20,06,33,9.20
2016,05,20,06,34,9.30
2016,05,20,06,35,9.30
2016,05,20,06,36,9.30
2016,05,20,06,37,9.30
2016,05,20,06,38,9.30
2016,05,20,06,39,9.30
2016,05,20,06,40,9.30
2016,05,20,06,41,9.30
2016,05,20,06,42,9.30
2016,05,20,06,43,9.30
2016,05,20,06,44,9.30
2016,05,20,06,45,9.30
2016,05,20,06,46,9.30
2016,05,20,06,47,9.30
2016,05,20,06,48,9.30
2016,05,20,06,49,9.30
2016,05,20,06,50,9.30
2016,05,20,06,51,9.30
2016,05,20,06,52,9.30
2016,05,20,06,53,9.30
2016,05,20,06,54,9.30
2016,05,20,06,55,9.30
2016,05,20,06,56,9.30
2016,05,20,06,57,9.40
2016,05,20,06,58,9.40
2016,05,20,06,59,9.40
2016,05,20,07,00,9.40
2016,05,20,07,01,9.40
2016,05,20,07,02,9.50
2016,05,20,07,03,9.50
2016,05,20,07,04,9.50
2016,05,20,07,05,9.60
2016,05,20,07,06,9.60
2016,05,20,07,07,9.60
2016,05,20,07,08,9.60
2016,05,20,07,09,9.60
2016,05,20,07,10,9.70
2016,05,20,07,11,9.70
2016,05,20,07,12,9.70
2016,05,20,07,13,9.70
2016,05,20,07,14,9.70
2016,05,20,07,15,9.80
2016,05,20,07,16,9.80
2016,05,20,07,17,9.80
2016,05,20,07,18,9.80
2016,05,20,07,19,9.90
2016,05,20,07,20,9.90
2016,05,20,07,21,9.90
2016,05,20,07,22,9.90
2016,05,20,07,23,10.00
2016,05,20,07,24,10.00
2016,05,20,07,25,10.00
2016,05,20,07,26,10.10
2016,05,20,07,27,10.10
2016,05,20,07,28,10.20
2016,05,20,07,29,10.20
2016,05,20,07,30,10.20
2016,05,20,07,31,10.30
2016,05,20,07,32,10.30
2016,05,20,07,33,10.40
2016,05,20,07,34,10.40
2016,05,20,07,35,10.50
2016,05,20,07,36,10.50
2016,05,20,07,37,10.60
2016,05,20,07,38,10.60
2016,05,20,07,39,10.60
2016,05,20,07,40,10.70
2016,05,20,07,41,10.70
2016,05,20,07,42,10.70
2016,05,20,07,43,10.80
2016,05,20,07,44,10.80
2016,05,20,07,45,10.80
2016,05,20,07,46,10.90
2016,05,20,07,47,10.90
2016,05,20,07,48,10.90
2016,05,20,07,49,10.90
2016,05,20,07,50,10.90
2016,05,20,07,51,10.90
2016,05,20,07,52,11.00
2016,05,20,07,53,11.00
2016,05,20,07,54,11.00
2016,05,20,07,55,11.10
2016,05,20,07,56,11.10
2016,05,20,07,57,11.10
2016,05,20,07,58,11.10
2016,05,20,07,59,11.10
2016,05,20,08,00,11.20
2016,05,20,08,01,11.20
2016,05,20,08,02,11.20
2016,05,20,08,03,11.20
2016,05,20,08,04,11.20
2016,05,20,08,05,11.20
2016,05,20,08,06,11.20
2016,05,20,08,07,11.20
2016,05,20,08,08,11.30
2016,05,20,08,09,11.30
2016,05,20,08,10,11.30
2016,05,20,08,11,11.30
2016,05,20,08,12,11.30
2016,05,20,08,13,11.30
2016,05,20,08,14,11.30
2016,05,20,08,15,11.30
2016,05,20,08,16,11.40
2016,05,20,08,17,11.40
2016,05,20,08,18,11.40
2016,05,20,08,19,11.40
2016,05,20,08,20,11.40
2016,05,20,08,21,11.40
2016,05,20,08,22,11.40
2016,05,20,08,23,11.40
2016,05,20,08,24,11.40
2016,05,20,08,25,11.40
2016,05,20,08,26,11.40
2016,05,20,08,27,11.40
2016,05,20,08,28,11.40
2016,05,20,08,29,11.40
2016,05,20,08,30,11.40
2016,05,20,08,31,11.40
2016,05,20,08,32,11.40
2016,05,20,08,33,11.40
2016,05,20,08,34,11.50
2016,05,20,08,35,11.50
2016,05,20,08,36,11.50
2016,05,20,08,37,11.50
2016,05,20,08,38,11.50
2016,05,20,08,39,11.50
2016,05,20,08,40,11.50
2016,05,20,08,41,11.50
2016,05,20,08,42,11.50
2016,05,20,08,43,11.50
2016,05,20,08,44,11.50
2016,05,20,08,45,11.40
2016,05,20,08,46,11.40
2016,05,20,08,47,11.40
2016,05,20,08,48,11.40
2016,05,20,08,49,11.40
2016,05,20,08,50,11.40
2016,05,20,08,51,11.40
2016,05,20,08,52,11.40
2016,05,20,08,53,11.40
2016,05,20,08,54,11.40
2016,05,20,08,55,11.40
2016,05,20,08,56,11.40
2016,05,20,08,57,11.40
2016,05,20,08,58,11.40
2016,05,20,08,59,11.50
2016,05,20,09,00,11.50
2016,05,20,09,01,11.50
2016,05,20,09,02,11.50
2016,05,20,09,03,11.60
2016,05,20,09,04,11.60
2016,05,20,09,05,11.60
2016,05,20,09,06,11.60
2016,05,20,09,07,11.50
2016,05,20,09,08,11.60
2016,05,20,09,09,11.60
2016,05,20,09,10,11.60
2016,05,20,09,11,11.60
2016,05,20,09,12,11.60
2016,05,20,09,13,11.70
2016,05,20,09,14,11.70
2016,05,20,09,15,11.70
2016,05,20,09,16,11.70
2016,05,20,09,17,11.70
2016,05,20,09,18,11.80
2016,05,20,09,19,11.80
2016,05,20,09,20,11.80
2016,05,20,09,21,11.80
2016,05,20,09,22,11.80
2016,05,20,09,23,11.70
2016,05,20,09,24,11.70
2016,05,20,09,25,11.70
2016,05,20,09,26,11.70
2016,05,20,09,27,11.70
2016,05,20,09,28,11.80
2016,05,20,09,29,11.80
2016,05,20,09,30,11.80
2016,05,20,09,31,11.80
2016,05,20,09,32,11.80
2016,05,20,09,33,11.80
2016,05,20,09,34,11.80
2016,05,20,09,35,11.80
2016,05,20,09,36,11.80
2016,05,20,09,37,11.80
2016,05,20,09,38,11.90
2016,05,20,09,39,11.90
2016,05,20,09,40,11.80
2016,05,20,09,41,11.80
2016,05,20,09,42,11.80
2016,05,20,09,43,11.80
2016,05,20,09,44,11.80
2016,05,20,09,45,11.90
2016,05,20,09,46,11.90
2016,05,20,09,47,11.90
2016,05,20,09,48,11.90
2016,05,20,09,49,11.90
2016,05,20,09,50,11.90
2016,05,20,09,51,11.90
2016,05,20,09,52,11.90
2016,05,20,09,53,11.90
2016,05,20,09,54,11.90
2016,05,20,09,55,11.90
2016,05,20,09,56,11.90
2016,05,20,09,57,11.90
2016,05,20,09,58,11.90
2016,05,20,09,59,11.90
2016,05,20,10,00,11.90
2016,05,20,10,01,12.00
2016,05,20,10,02,12.00
2016,05,20,10,03,12.00
2016,05,20,10,04,12.00
2016,05,20,10,05,12.00
2016,05,20,10,06,12.00
2016,05,20,10,07,11.90
2016,05,20,10,08,11.90
2016,05,20,10,09,11.90
2016,05,20,10,10,11.90
2016,05,20,10,11,11.90
2016,05,20,10,12,12.00
2016,05,20,10,13,12.00
2016,05,20,10,14,12.10
2016,05,20,10,15,12.10
2016,05,20,10,16,12.10
2016,05,20,10,17,12.20
2016,05,20,10,18,12.20
2016,05,20,10,19,12.30
2016,05,20,10,20,12.30
2016,05,20,10,21,12.30
2016,05,20,10,22,12.40
2016,05,20,10,23,12.40
2016,05,20,10,24,12.40
2016,05,20,10,25,12.40
2016,05,20,10,26,12.50
2016,05,20,10,27,12.50
2016,05,20,10,28,12.60
2016,05,20,10,29,12.60
2016,05,20,10,30,12.70
2016,05,20,10,31,12.70
2016,05,20,10,32,12.80
2016,05,20,10,33,12.80
2016,05,20,10,34,12.80
2016,05,20,10,35,12.90
2016,05,20,10,36,12.90
2016,05,20,10,37,13.00
2016,05,20,10,38,13.10
2016,05,20,10,39,13.10
2016,05,20,10,40,13.20
2016,05,20,10,41,13.20
2016,05,20,10,42,13.20
2016,05,20,10,43,13.30
2016,05,20,10,44,13.30
2016,05,20,10,45,13.30
2016,05,20,10,46,13.30
2016,05,20,10,47,13.30
2016,05,20,10,48,13.30
2016,05,20,10,49,13.30
2016,05,20,10,50,13.40
2016,05,20,10,51,13.40
2016,05,20,10,52,13.40
2016,05,20,10,53,13.50
2016,05,20,10,54,13.50
2016,05,20,10,55,13.60
2016,05,20,10,56,13.60
2016,05,20,10,57,13.70
2016,05,20,10,58,13.70
2016,05,20,10,59,13.80
2016,05,20,11,00,13.80
2016,05,20,11,01,13.90
2016,05,20,11,02,13.90
2016,05,20,11,03,13.90
2016,05,20,11,04,14.00
2016,05,20,11,05,14.00
2016,05,20,11,06,14.00
2016,05,20,11,07,14.00
2016,05,20,11,08,14.00
2016,05,20,11,09,14.00
2016,05,20,11,10,14.00
2016,05,20,11,11,14.00
2016,05,20,11,12,14.10
2016,05,20,11,13,14.10
2016,05,20,11,14,14.10
2016,05,20,11,15,14.20
2016,05,20,11,16,14.30
2016,05,20,11,17,14.30
2016,05,20,11,18,14.30
2016,05,20,11,19,14.30
2016,05,20,11,20,14.20
2016,05,20,11,21,14.30
2016,05,20,11,22,14.30
2016,05,20,11,23,14.30
2016,05,20,11,24,14.40
2016,05,20,11,25,14.50
2016,05,20,11,26,14.50
2016,05,20,11,27,14.60
2016,05,20,11,28,14.60
2016,05,20,11,29,14.70
2016,05,20,11,30,14.80
2016,05,20,11,31,14.80
2016,05,20,11,32,14.90
2016,05,20,11,33,14.90
2016,05,20,11,34,14.90
2016,05,20,11,35,14.90
2016,05,20,11,36,15.00
2016,05,20,11,37,15.00
2016,05,20,11,38,15.10
2016,05,20,11,39,15.10
2016,05,20,11,40,15.10
2016,05,20,11,41,15.10
2016,05,20,11,42,15.10
2016,05,20,11,43,15.10
2016,05,20,11,44,15.10
2016,05,20,11,45,15.10
2016,05,20,11,46,15.10
2016,05,20,11,47,15.00
2016,05,20,11,48,15.00
2016,05,20,11,49,14.90
2016,05,20,11,50,14.90
2016,05,20,11,51,14.90
2016,05,20,11,52,15.00
2016,05,20,11,53,15.10
2016,05,20,11,54,15.10
2016,05,20,11,55,15.20
2016,05,20,11,56,15.30
2016,05,20,11,57,15.40
2016,05,20,11,58,15.60
2016,05,20,11,59,15.60
2016,05,20,12,00,15.70
2016,05,20,12,01,15.70
2016,05,20,12,02,15.70
2016,05,20,12,03,15.70
2016,05,20,12,04,15.70
2016,05,20,12,05,15.60
2016,05,20,12,06,15.60
2016,05,20,12,07,15.60
2016,05,20,12,08,15.60
2016,05,20,12,09,15.70
2016,05,20,12,10,15.70
2016,05,20,12,11,15.80
2016,05,20,12,12,15.90
2016,05,20,12,13,16.00
2016,05,20,12,14,16.10
2016,05,20,12,15,16.20
2016,05,20,12,16,16.20
2016,05,20,12,17,16.30
2016,05,20,12,18,16.30
2016,05,20,12,19,16.30
2016,05,20,12,20,16.30
2016,05,20,12,21,16.30
2016,05,20,12,22,16.30
2016,05,20,12,23,16.30
2016,05,20,12,24,16.30
2016,05,20,12,25,16.30
2016,05,20,12,26,16.30
2016,05,20,12,27,16.40
2016,05,20,12,28,16.40
2016,05,20,12,29,16.40
2016,05,20,12,30,16.40
2016,05,20,12,31,16.50
2016,05,20,12,32,16.50
2016,05,20,12,33,16.60
2016,05,20,12,34,16.60
2016,05,20,12,35,16.70
2016,05,20,12,36,16.70
2016,05,20,12,37,16.80
2016,05,20,12,38,16.80
2016,05,20,12,39,16.80
2016,05,20,12,40,16.70
2016,05,20,12,41,16.60
2016,05,20,12,42,16.60
2016,05,20,12,43,16.50
2016,05,20,12,44,16.40
2016,05,20,12,45,16.40
2016,05,20,12,46,16.30
2016,05,20,12,47,16.30
2016,05,20,12,48,16.20
2016,05,20,12,49,16.20
2016,05,20,12,50,16.20
2016,05,20,12,51,16.20
2016,05,20,12,52,16.30
2016,05,20,12,53,16.30
2016,05,20,12,54,16.30
2016,05,20,12,55,16.30
2016,05,20,12,56,16.40
2016,05,20,12,57,16.40
2016,05,20,12,58,16.50
2016,05,20,12,59,16.50
2016,05,20,13,00,16.60
2016,05,20,13,01,16.60
2016,05,20,13,02,16.70
2016,05,20,13,03,16.70
2016,05,20,13,04,16.70
2016,05,20,13,05,16.80
2016,05,20,13,06,16.80
2016,05,20,13,07,16.80
2016,05,20,13,08,16.80
2016,05,20,13,09,16.80
2016,05,20,13,10,16.90
2016,05,20,13,11,16.90
2016,05,20,13,12,16.90
2016,05,20,13,13,16.80
2016,05,20,13,14,16.80
2016,05,20,13,15,16.80
2016,05,20,13,16,16.80
2016,05,20,13,17,16.80
2016,05,20,13,18,16.80
2016,05,20,13,19,16.80
2016,05,20,13,20,16.80
2016,05,20,13,21,16.80
2016,05,20,13,22,16.70
2016,05,20,13,23,16.70
2016,05,20,13,24,16.70
2016,05,20,13,25,16.70
2016,05,20,13,26,16.80
2016,05,20,13,27,16.80
2016,05,20,13,28,16.90
2016,05,20,13,29,16.90
2016,05,20,13,30,16.90
2016,05,20,13,31,16.90
2016,05,20,13,32,16.90
2016,05,20,13,33,17.00
2016,05,20,13,34,17.00
2016,05,20,13,35,17.10
2016,05,20,13,36,17.20
2016,05,20,13,37,17.20
2016,05,20,13,38,17.20
2016,05,20,13,39,17.20
2016,05,20,13,40,17.30
2016,05,20,13,41,17.50
2016,05,20,13,42,17.70
2016,05,20,13,43,17.80
2016,05,20,13,44,18.00
2016,05,20,13,45,18.10
2016,05,20,13,46,18.10
2016,05,20,13,47,18.10
2016,05,20,13,48,18.10
2016,05,20,13,49,18.10
2016,05,20,13,50,18.00
2016,05,20,13,51,17.90
2016,05,20,13,52,17.80
2016,05,20,13,53,17.70
2016,05,20,13,54,17.70
2016,05,20,13,55,17.60
2016,05,20,13,56,17.60
2016,05,20,13,57,17.50
2016,05,20,13,58,17.40
2016,05,20,13,59,17.30
2016,05,20,14,00,17.20
2016,05,20,14,01,17.20
2016,05,20,14,02,17.20
2016,05,20,14,03,17.20
2016,05,20,14,04,17.20
2016,05,20,14,05,17.20
2016,05,20,14,06,17.20
2016,05,20,14,07,17.20
2016,05,20,14,08,17.10
2016,05,20,14,09,17.10
2016,05,20,14,10,17.00
2016,05,20,14,11,17.00
2016,05,20,14,12,17.00
2016,05,20,14,13,17.10
2016,05,20,14,14,17.10
2016,05,20,14,15,17.10
2016,05,20,14,16,17.00
2016,05,20,14,17,16.90
2016,05,20,14,18,16.80
2016,05,20,14,19,16.70
2016,05,20,14,20,16.60
2016,05,20,14,21,16.60
2016,05,20,14,22,16.60
2016,05,20,14,23,16.60
2016,05,20,14,24,16.70
2016,05,20,14,25,16.70
2016,05,20,14,26,16.80
2016,05,20,14,27,16.80
2016,05,20,14,28,16.80
2016,05,20,14,29,16.80
2016,05,20,14,30,16.70
2016,05,20,14,31,16.70
2016,05,20,14,32,16.70
2016,05,20,14,33,16.70
2016,05,20,14,34,16.70
2016,05,20,14,35,16.70
2016,05,20,14,36,16.80
2016,05,20,14,37,16.80
2016,05,20,14,38,16.90
2016,05,20,14,39,16.90
2016,05,20,14,40,16.90
2016,05,20,14,41,16.90
2016,05,20,14,42,16.90
2016,05,20,14,43,16.90
2016,05,20,14,44,17.00
2016,05,20,14,45,17.00
2016,05,20,14,46,17.10
2016,05,20,14,47,17.20
2016,05,20,14,48,17.20
2016,05,20,14,49,17.20
2016,05,20,14,50,17.20
2016,05,20,14,51,17.20
2016,05,20,14,52,17.20
2016,05,20,14,53,17.20
2016,05,20,14,54,17.20
2016,05,20,14,55,17.20
2016,05,20,14,56,17.20
2016,05,20,14,57,17.30
2016,05,20,14,58,17.30
2016,05,20,14,59,17.30
2016,05,20,15,00,17.30
2016,05,20,15,01,17.30
2016,05,20,15,02,17.30
2016,05,20,15,03,17.30
2016,05,20,15,04,17.30
2016,05,20,15,05,17.40
2016,05,20,15,06,17.50
2016,05,20,15,07,17.50
2016,05,20,15,08,17.60
2016,05,20,15,09,17.60
2016,05,20,15,10,17.60
2016,05,20,15,11,17.70
2016,05,20,15,12,17.80
2016,05,20,15,13,17.80
2016,05,20,15,14,17.90
2016,05,20,15,15,18.00
2016,05,20,15,16,18.10
2016,05,20,15,17,18.10
2016,05,20,15,18,18.10
2016,05,20,15,19,18.10
2016,05,20,15,20,18.10
2016,05,20,15,21,18.10
2016,05,20,15,22,18.00
2016,05,20,15,23,17.90
2016,05,20,15,24,17.90
2016,05,20,15,25,17.90
2016,05,20,15,26,17.80
2016,05,20,15,27,17.80
2016,05,20,15,28,17.80
2016,05,20,15,29,17.80
2016,05,20,15,30,17.80
2016,05,20,15,31,17.80
2016,05,20,15,32,17.80
2016,05,20,15,33,17.80
2016,05,20,15,34,17.80
2016,05,20,15,35,17.80
2016,05,20,15,36,17.90
2016,05,20,15,37,17.90
2016,05,20,15,38,18.00
2016,05,20,15,39,18.10
2016,05,20,15,40,18.20
2016,05,20,15,41,18.30
2016,05,20,15,42,18.30
2016,05,20,15,43,18.20
2016,05,20,15,44,18.20
2016,05,20,15,45,18.30
2016,05,20,15,46,18.30
2016,05,20,15,47,18.30
2016,05,20,15,48,18.30
2016,05,20,15,49,18.30
2016,05,20,15,50,18.30
2016,05,20,15,51,18.30
2016,05,20,15,52,18.20
2016,05,20,15,53,18.30
2016,05,20,15,54,18.30
2016,05,20,15,55,18.30
2016,05,20,15,56,18.30
2016,05,20,15,57,18.30
2016,05,20,15,58,18.30
2016,05,20,15,59,18.40
2016,05,20,16,00,18.40
2016,05,20,16,01,18.50
2016,05,20,16,02,18.60
2016,05,20,16,03,18.60
2016,05,20,16,04,18.60
2016,05,20,16,05,18.60
2016,05,20,16,06,18.60
2016,05,20,16,07,18.60
2016,05,20,16,08,18.50
2016,05,20,16,09,18.50
2016,05,20,16,10,18.50
2016,05,20,16,11,18.50
2016,05,20,16,12,18.50
2016,05,20,16,13,18.60
2016,05,20,16,14,18.60
2016,05,20,16,15,18.60
2016,05,20,16,16,18.60
2016,05,20,16,17,18.50
2016,05,20,16,18,18.50
2016,05,20,16,19,18.40
2016,05,20,16,20,18.30
2016,05,20,16,21,18.30
2016,05,20,16,22,18.20
2016,05,20,16,23,18.20
2016,05,20,16,24,18.30
2016,05,20,16,25,18.30
2016,05,20,16,26,18.40
2016,05,20,16,27,18.50
2016,05,20,16,28,18.50
2016,05,20,16,29,18.50
2016,05,20,16,30,18.50
2016,05,20,16,31,18.50
2016,05,20,16,32,18.50
2016,05,20,16,33,18.50
2016,05,20,16,34,18.50
2016,05,20,16,35,18.40
2016,05,20,16,36,18.40
2016,05,20,16,37,18.30
2016,05,20,16,38,18.30
2016,05,20,16,39,18.30
2016,05,20,16,40,18.30
2016,05,20,16,41,18.30
2016,05,20,16,42,18.30
2016,05,20,16,43,18.40
2016,05,20,16,44,18.40
2016,05,20,16,45,18.40
2016,05,20,16,46,18.40
2016,05,20,16,47,18.40
2016,05,20,16,48,18.40
2016,05,20,16,49,18.40
2016,05,20,16,50,18.50
2016,05,20,16,51,18.50
2016,05,20,16,52,18.50
2016,05,20,16,53,18.50
2016,05,20,16,54,18.40
2016,05,20,16,55,18.40
2016,05,20,16,56,18.40
2016,05,20,16,57,18.40
2016,05,20,16,58,18.50
2016,05,20,16,59,18.60
2016,05,20,17,00,18.70
2016,05,20,17,01,18.80
2016,05,20,17,02,18.90
2016,05,20,17,03,18.90
2016,05,20,17,04,18.90
2016,05,20,17,05,18.90
2016,05,20,17,06,18.90
2016,05,20,17,07,18.80
2016,05,20,17,08,18.80
2016,05,20,17,09,18.70
2016,05,20,17,10,18.60
2016,05,20,17,11,18.60
2016,05,20,17,12,18.60
2016,05,20,17,13,18.60
2016,05,20,17,14,18.70
2016,05,20,17,15,18.70
2016,05,20,17,16,18.70
2016,05,20,17,17,18.80
2016,05,20,17,18,18.80
2016,05,20,17,19,18.80
2016,05,20,17,20,18.90
2016,05,20,17,21,18.90
2016,05,20,17,22,18.90
2016,05,20,17,23,19.00
2016,05,20,17,24,19.00
2016,05,20,17,25,18.90
2016,05,20,17,26,18.90
2016,05,20,17,27,18.90
2016,05,20,17,28,19.00
2016,05,20,17,29,19.00
2016,05,20,17,30,19.10
2016,05,20,17,31,19.10
2016,05,20,17,32,19.10
2016,05,20,17,33,19.10
2016,05,20,17,34,19.10
2016,05,20,17,35,19.10
2016,05,20,17,36,19.10
2016,05,20,17,37,19.10
2016,05,20,17,38,19.10